TimeEST,TemperatureF,Dew PointF,Humidity,Sea Level PressureIn,VisibilityMPH,Wind Direction,Wind SpeedMPH,Gust SpeedMPH,PrecipitationIn,Events,Conditions,WindDirDegrees,DateUTC
12:15 AM,34.3,30.2,85,30.01,10.0,South,5.8,-,N/A,,Overcast,190,2012-12-08 05:15:00
12:35 AM,34.3,30.4,85,30.01,10.0,South,3.5,-,N/A,,Overcast,190,2012-12-08 05:35:00
12:55 AM,34.3,30.6,86,30.01,10.0,SSW,3.5,-,N/A,,Overcast,200,2012-12-08 05:55:00
1:15 AM,34.3,30.6,86,30.00,10.0,Calm,Calm,-,N/A,,Overcast,0,2012-12-08 06:15:00
1:35 AM,34.3,30.9,87,30.00,10.0,Calm,Calm,-,N/A,,Overcast,0,2012-12-08 06:35:00
1:55 AM,34.3,30.9,87,30.01,10.0,Calm,Calm,-,N/A,,Overcast,0,2012-12-08 06:55:00
2:15 AM,34.3,31.1,88,30.00,10.0,Calm,Calm,-,N/A,,Overcast,0,2012-12-08 07:15:00
2:35 AM,34.3,31.1,88,30.01,10.0,Calm,Calm,-,N/A,,Overcast,0,2012-12-08 07:35:00
2:55 AM,34.3,31.3,89,30.00,10.0,Calm,Calm,-,N/A,,Overcast,0,2012-12-08 07:55:00
3:15 AM,33.8,31.5,91,30.00,10.0,Calm,Calm,-,N/A,,Overcast,0,2012-12-08 08:15:00
3:35 AM,34.3,31.6,90,29.99,10.0,Calm,Calm,-,N/A,,Overcast,0,2012-12-08 08:35:00
3:55 AM,34.3,31.8,90,29.99,10.0,Calm,Calm,-,N/A,,Overcast,0,2012-12-08 08:55:00
4:15 AM,32.5,30.4,92,29.98,10.0,Calm,Calm,-,N/A,,Mostly Cloudy,0,2012-12-08 09:15:00
4:35 AM,32.0,30.0,92,29.98,10.0,Calm,Calm,-,N/A,,Scattered Clouds,0,2012-12-08 09:35:00
4:55 AM,32.0,29.3,90,29.98,10.0,Calm,Calm,-,N/A,,Scattered Clouds,0,2012-12-08 09:55:00
5:15 AM,32.0,29.3,90,29.97,10.0,Calm,Calm,-,N/A,,Overcast,0,2012-12-08 10:15:00
5:35 AM,32.0,30.0,92,29.97,10.0,Calm,Calm,-,N/A,,Mostly Cloudy,0,2012-12-08 10:35:00
5:55 AM,32.0,29.3,90,29.97,10.0,Calm,Calm,-,N/A,,Overcast,0,2012-12-08 10:55:00
6:35 AM,32.0,28.4,87,29.97,-9999.0,SE,3.5,-,N/A,,Overcast,140,2012-12-08 11:35:00
6:55 AM,32.0,28.4,87,29.96,-9999.0,ESE,5.8,-,N/A,,Unknown,110,2012-12-08 11:55:00
7:15 AM,32.0,27.9,85,29.96,-9999.0,Calm,Calm,-,N/A,,Overcast,0,2012-12-08 12:15:00
7:35 AM,32.0,27.5,83,29.96,10.0,Calm,Calm,-,N/A,,Overcast,0,2012-12-08 12:35:00
7:55 AM,32.0,27.7,84,29.95,10.0,Calm,Calm,-,N/A,,Overcast,0,2012-12-08 12:55:00
8:15 AM,32.0,28.2,86,29.96,10.0,Calm,Calm,-,N/A,,Overcast,0,2012-12-08 13:15:00
8:35 AM,32.4,29.1,88,29.96,10.0,East,3.5,-,N/A,Snow,Light Snow,100,2012-12-08 13:35:00
8:55 AM,33.6,29.7,85,29.96,7.0,Calm,Calm,-,N/A,Snow,Light Snow,0,2012-12-08 13:55:00
9:15 AM,32.7,29.8,89,29.95,-9999.0,ENE,4.6,-,N/A,,Unknown,70,2012-12-08 14:15:00
9:35 AM,32.9,30.2,90,29.95,-9999.0,East,3.5,-,N/A,,Unknown,100,2012-12-08 14:35:00
9:55 AM,33.1,30.7,91,29.94,-9999.0,East,3.5,-,N/A,,Unknown,80,2012-12-08 14:55:00
10:15 AM,34.3,32.0,91,29.92,-9999.0,East,4.6,-,N/A,,Unknown,90,2012-12-08 15:15:00
10:35 AM,34.3,32.0,91,29.91,-9999.0,ESE,3.5,-,N/A,,Unknown,110,2012-12-08 15:35:00
10:55 AM,34.3,31.8,90,29.91,10.0,SSE,3.5,-,N/A,,Overcast,150,2012-12-08 15:55:00
11:15 AM,34.7,32.0,90,29.89,10.0,East,3.5,-,N/A,,Overcast,90,2012-12-08 16:15:00
11:35 AM,36.7,33.4,88,29.87,10.0,East,4.6,-,N/A,,Overcast,100,2012-12-08 16:35:00
11:55 AM,36.9,33.1,86,29.86,10.0,East,3.5,-,N/A,,Overcast,80,2012-12-08 16:55:00
12:15 PM,36.9,33.1,86,29.84,10.0,Calm,Calm,-,N/A,,Overcast,0,2012-12-08 17:15:00
12:35 PM,36.9,33.3,87,29.84,10.0,Calm,Calm,-,N/A,,Overcast,0,2012-12-08 17:35:00
12:55 PM,36.9,33.3,87,29.82,10.0,East,3.5,-,N/A,,Overcast,90,2012-12-08 17:55:00
1:15 PM,36.9,33.6,88,29.81,10.0,East,4.6,-,N/A,,Overcast,100,2012-12-08 18:15:00
1:35 PM,36.9,33.3,87,29.80,10.0,East,3.5,-,N/A,,Overcast,100,2012-12-08 18:35:00
1:55 PM,36.9,33.3,87,29.79,10.0,Calm,Calm,-,N/A,,Overcast,0,2012-12-08 18:55:00
2:15 PM,36.9,33.4,87,29.79,10.0,Calm,Calm,-,N/A,,Overcast,0,2012-12-08 19:15:00
2:35 PM,36.9,33.4,87,29.79,7.0,Calm,Calm,-,N/A,,Drizzle,0,2012-12-08 19:35:00
2:55 PM,36.9,33.8,89,29.79,10.0,Calm,Calm,-,N/A,,Overcast,0,2012-12-08 19:55:00
3:15 PM,36.9,34.2,90,29.77,10.0,ESE,3.5,-,N/A,,Overcast,120,2012-12-08 20:15:00
3:55 PM,36.9,34.3,91,29.77,7.0,Calm,Calm,-,N/A,,Drizzle,0,2012-12-08 20:55:00
4:15 PM,36.9,34.7,92,29.77,5.0,Calm,Calm,-,N/A,,Overcast,0,2012-12-08 21:15:00
4:35 PM,36.9,34.9,93,29.76,7.0,Calm,Calm,-,N/A,,Overcast,0,2012-12-08 21:35:00
4:55 PM,36.9,34.9,93,29.77,4.0,NW,4.6,-,N/A,,Drizzle,320,2012-12-08 21:55:00
5:15 PM,36.9,35.2,94,29.78,2.0,Calm,Calm,-,N/A,,Overcast,0,2012-12-08 22:15:00
5:35 PM,36.7,35.2,95,29.79,2.5,Calm,Calm,-,N/A,,Overcast,0,2012-12-08 22:35:00
5:55 PM,36.7,35.2,95,29.79,1.5,Calm,Calm,-,N/A,,Overcast,0,2012-12-08 22:55:00
6:15 PM,36.9,35.6,95,29.79,4.0,South,5.8,-,N/A,,Overcast,170,2012-12-08 23:15:00
6:35 PM,38.3,36.7,94,29.80,7.0,SW,6.9,-,N/A,,Overcast,220,2012-12-08 23:35:00
6:55 PM,39.4,37.8,94,29.81,10.0,WSW,5.8,-,N/A,,Overcast,250,2012-12-08 23:55:00
7:15 PM,38.1,36.5,94,29.81,5.0,SSW,4.6,-,N/A,,Overcast,200,2012-12-09 00:15:00
7:35 PM,37.4,35.6,93,29.82,5.0,SW,4.6,-,N/A,,Overcast,220,2012-12-09 00:35:00
8:15 PM,37.4,36.0,95,29.83,5.0,WSW,3.5,-,N/A,,Overcast,240,2012-12-09 01:15:00
8:35 PM,36.9,35.4,95,29.84,3.0,WNW,4.6,-,N/A,,Overcast,300,2012-12-09 01:35:00
9:15 PM,36.9,35.6,95,29.85,3.0,West,3.5,-,N/A,,Overcast,270,2012-12-09 02:15:00
9:35 PM,36.9,35.6,95,29.87,3.0,WNW,3.5,-,N/A,,Overcast,300,2012-12-09 02:35:00
9:55 PM,36.9,35.6,95,29.89,5.0,WNW,3.5,-,N/A,,Overcast,290,2012-12-09 02:55:00
10:15 PM,36.7,35.4,95,29.90,5.0,WNW,4.6,-,N/A,,Overcast,290,2012-12-09 03:15:00
10:35 PM,35.8,34.3,94,29.91,7.0,NW,4.6,-,N/A,,Overcast,310,2012-12-09 03:35:00
10:55 PM,36.9,35.2,94,29.92,10.0,NW,5.8,-,N/A,,Overcast,310,2012-12-09 03:55:00
11:15 PM,34.7,32.9,93,29.93,10.0,NW,4.6,-,N/A,,Overcast,310,2012-12-09 04:15:00
11:35 PM,34.3,32.5,93,29.95,7.0,NNW,3.5,-,N/A,,Overcast,330,2012-12-09 04:35:00
11:55 PM,34.3,32.5,93,29.96,7.0,NW,4.6,-,N/A,,Overcast,310,2012-12-09 04:55:00